| time (UTC) | temp F | wind direction | speed MPH | gust MPH | rain 1hr in | rain 24hr in | rain mn in | humidity % | barometer mb |
| 20260904193003 | 58 | 317 | 11.0 | 19.0 | 0.00 | 0.00 | 0.00 | 53 | 1000.5 |
| 20260904191501 | 58 | 338 | 14.0 | 21.0 | 0.00 | 0.00 | 0.00 | 53 | 1000.4 |
| 20260904190003 | 57 | 349 | 13.0 | 18.0 | 0.00 | 0.00 | 0.00 | 54 | 1000.3 |
| 20260904184501 | 58 | 323 | 12.0 | 17.0 | 0.00 | 0.00 | 0.00 | 54 | 1000.1 |
| 20260904183112 | 58 | 348 | 12.0 | 18.0 | 0.00 | 0.00 | 0.00 | 53 | 999.9 |
| 20260904181602 | 57 | 360 | 12.0 | 18.0 | 0.00 | 0.00 | 0.00 | 56 | 999.9 |
| 20260904180106 | 56 | 360 | 12.0 | 17.0 | 0.00 | 0.00 | 0.00 | 57 | 999.8 |
| 20260904174607 | 55 | 36 | 14.0 | 18.0 | 0.00 | 0.00 | 0.00 | 58 | 999.5 |
| 20260904173116 | 55 | 22 | 12.0 | 17.0 | 0.00 | 0.00 | 0.00 | 58 | 999.4 |
| 20260904171600 | 55 | 44 | 12.0 | 16.0 | 0.00 | 0.00 | 0.00 | 58 | 999.0 |
| 20260904164555 | 61 | 265 | 6.0 | 11.0 | 0.00 | 0.00 | 0.00 | 47 | 999.1 |
| 20260904163050 | 61 | 232 | 1.0 | 4.0 | 0.00 | 0.00 | 0.00 | 46 | 998.9 |
| 20260904161550 | 61 | 217 | 3.0 | 12.0 | 0.00 | 0.00 | 0.00 | 47 | 998.8 |
| 20260904160049 | 63 | 179 | 6.0 | 10.0 | 0.00 | 0.00 | 0.00 | 43 | 998.8 |
| 20260904154549 | 64 | 176 | 8.0 | 17.0 | 0.00 | 0.00 | 0.00 | 40 | 998.8 |
| 20260904153056 | 65 | 156 | 10.0 | 20.0 | 0.00 | 0.00 | 0.00 | 38 | 998.2 |
| 20260904151549 | 65 | 141 | 17.0 | 23.0 | 0.00 | 0.00 | 0.00 | 39 | 997.5 |
| 20260904150051 | 64 | 82 | 13.0 | 19.0 | 0.00 | 0.00 | 0.00 | 40 | 996.6 |
| 20260904144546 | 64 | 84 | 14.0 | 27.0 | 0.00 | 0.00 | 0.00 | 40 | 997.1 |
| 20260904143042 | 63 | 97 | 13.0 | 23.0 | 0.00 | 0.00 | 0.00 | 40 | 997.1 |
| 20260904141542 | 62 | 90 | 14.0 | 21.0 | 0.00 | 0.00 | 0.00 | 41 | 997.4 |
| 20260904140042 | 62 | 101 | 15.0 | 20.0 | 0.00 | 0.00 | 0.00 | 41 | 997.4 |
| 20260904134539 | 62 | 123 | 17.0 | 22.0 | 0.00 | 0.00 | 0.00 | 41 | 997.5 |
| 20260904133038 | 62 | 117 | 12.0 | 19.0 | 0.00 | 0.00 | 0.00 | 41 | 997.4 |
| 20260904131537 | 62 | 84 | 10.0 | 15.0 | 0.00 | 0.00 | 0.00 | 41 | 997.5 |
| 20260904130037 | 62 | 132 | 10.0 | 19.0 | 0.00 | 0.00 | 0.00 | 41 | 997.5 |
| 20260904124548 | 62 | 82 | 13.0 | 18.0 | 0.00 | 0.00 | 0.00 | 41 | 997.2 |
| 20260904123036 | 62 | 61 | 11.0 | 18.0 | 0.00 | 0.00 | 0.00 | 41 | 997.2 |
| 20260904121534 | 61 | 97 | 9.0 | 17.0 | 0.00 | 0.00 | 0.00 | 41 | 997.3 |
| 20260904120032 | 62 | 88 | 11.0 | 17.0 | 0.00 | 0.00 | 0.00 | 40 | 997.3 |
| 20260904114539 | 63 | 121 | 10.0 | 19.0 | 0.00 | 0.00 | 0.00 | 39 | 997.4 |
| 20260904113039 | 64 | 80 | 15.0 | 22.0 | 0.00 | 0.00 | 0.00 | 38 | 997.4 |
| 20260904111530 | 63 | 75 | 14.0 | 24.0 | 0.00 | 0.00 | 0.00 | 39 | 997.5 |
| 20260904110028 | 65 | 105 | 17.0 | 27.0 | 0.00 | 0.00 | 0.00 | 37 | 997.7 |
| 20260904104529 | 64 | 82 | 18.0 | 28.0 | 0.00 | 0.00 | 0.00 | 38 | 997.7 |
| 20260904103035 | 64 | 82 | 19.0 | 27.0 | 0.00 | 0.00 | 0.00 | 37 | 997.7 |
| 20260904101526 | 65 | 81 | 22.0 | 29.0 | 0.00 | 0.00 | 0.00 | 37 | 998.0 |
| 20260904100023 | 64 | 81 | 20.0 | 29.0 | 0.00 | 0.00 | 0.00 | 39 | 998.1 |
| 20260904094521 | 64 | 88 | 19.0 | 27.0 | 0.00 | 0.00 | 0.00 | 40 | 998.2 |
| 20260904093020 | 64 | 82 | 17.0 | 27.0 | 0.00 | 0.00 | 0.00 | 41 | 998.4 |
| 20260904091516 | 63 | 92 | 16.0 | 25.0 | 0.00 | 0.00 | 0.00 | 42 | 998.7 |
| 20260904090014 | 62 | 91 | 13.0 | 19.0 | 0.00 | 0.00 | 0.00 | 43 | 998.9 |
| 20260904084511 | 61 | 73 | 7.0 | 12.0 | 0.00 | 0.00 | 0.00 | 46 | 999.1 |
| 20260904083009 | 60 | 93 | 6.0 | 12.0 | 0.00 | 0.00 | 0.00 | 47 | 999.3 |
| 20260904081507 | 60 | 103 | 8.0 | 12.0 | 0.00 | 0.00 | 0.00 | 47 | 999.4 |
| 20260904080006 | 60 | 90 | 9.0 | 13.0 | 0.00 | 0.00 | 0.00 | 47 | 999.5 |
| 20260904074503 | 58 | 92 | 8.0 | 10.0 | 0.00 | 0.00 | 0.00 | 50 | 999.7 |
| 20260904073107 | 58 | 98 | 6.0 | 8.0 | 0.00 | 0.00 | 0.00 | 50 | 1000.1 |
| 20260904071601 | 59 | 82 | 1.0 | 3.0 | 0.00 | 0.00 | 0.00 | 50 | 1000.2 |
| 20260904070109 | 58 | 80 | 2.0 | 4.0 | 0.00 | 0.00 | 0.00 | 50 | 1000.3 |
| 20260904064556 | 59 | 86 | 3.0 | 6.0 | 0.00 | 0.00 | 0.00 | 50 | 1000.2 |
| 20260904063057 | 58 | 87 | 3.0 | 7.0 | 0.00 | 0.00 | 0.00 | 51 | 1000.5 |
| 20260904061600 | 55 | 89 | 4.0 | 8.0 | 0.00 | 0.00 | 0.00 | 54 | 1000.8 |
| 20260904060047 | 56 | 126 | 5.0 | 11.0 | 0.00 | 0.00 | 0.00 | 52 | 1001.0 |
| 20260904054549 | 57 | 89 | 7.0 | 11.0 | 0.00 | 0.00 | 0.00 | 50 | 1001.2 |
| 20260904053046 | 58 | 86 | 9.0 | 12.0 | 0.00 | 0.00 | 0.00 | 50 | 1001.4 |
| 20260904051545 | 60 | 55 | 1.0 | 4.0 | 0.00 | 0.00 | 0.00 | 49 | 1001.4 |
| 20260904050045 | 59 | 46 | 2.0 | 7.0 | 0.00 | 0.00 | 0.00 | 49 | 1001.3 |
| 20260904044544 | 58 | 34 | 3.0 | 4.0 | 0.00 | 0.00 | 0.00 | 53 | 1001.0 |
| 20260904043056 | 58 | 43 | 3.0 | 6.0 | 0.00 | 0.00 | 0.00 | 50 | 1001.1 |
| 20260904041543 | 58 | 51 | 3.0 | 5.0 | 0.00 | 0.00 | 0.00 | 50 | 1001.1 |
| 20260904040042 | 58 | 36 | 3.0 | 5.0 | 0.00 | 0.00 | 0.00 | 49 | 1001.4 |
| 20260904034549 | 56 | 40 | 4.0 | 5.0 | 0.00 | 0.00 | 0.00 | 52 | 1001.3 |
| 20260904033042 | 57 | 33 | 3.0 | 6.0 | 0.00 | 0.00 | 0.00 | 50 | 1001.4 |
| 20260904031544 | 58 | 27 | 4.0 | 6.0 | 0.00 | 0.00 | 0.00 | 49 | 1001.5 |
| 20260904030040 | 56 | 36 | 4.0 | 8.0 | 0.00 | 0.00 | 0.00 | 51 | 1001.5 |
| 20260904024538 | 56 | 34 | 4.0 | 8.0 | 0.00 | 0.00 | 0.00 | 51 | 1001.3 |
| 20260904023037 | 57 | 26 | 4.0 | 6.0 | 0.00 | 0.00 | 0.00 | 50 | 1001.0 |
| 20260904021540 | 59 | 18 | 3.0 | 6.0 | 0.00 | 0.00 | 0.00 | 47 | 1000.9 |
| 20260904020036 | 61 | 318 | 4.0 | 8.0 | 0.00 | 0.00 | 0.00 | 46 | 1000.8 |
| 20260904014544 | 61 | 317 | 3.0 | 8.0 | 0.00 | 0.00 | 0.00 | 45 | 1000.6 |
| 20260904013035 | 62 | 297 | 5.0 | 12.0 | 0.00 | 0.00 | 0.00 | 44 | 1000.7 |
| 20260904011535 | 64 | 261 | 9.0 | 17.0 | 0.00 | 0.00 | 0.00 | 41 | 1000.8 |
| 20260904010033 | 65 | 259 | 12.0 | 17.0 | 0.00 | 0.01 | 0.00 | 39 | 1000.9 |
| 20260904004535 | 65 | 256 | 10.0 | 18.0 | 0.00 | 0.01 | 0.00 | 40 | 1000.8 |
| 20260904003033 | 65 | 283 | 11.0 | 19.0 | 0.00 | 0.01 | 0.00 | 40 | 1000.7 |
| 20260904001529 | 65 | 250 | 17.0 | 21.0 | 0.00 | 0.01 | 0.00 | 38 | 1000.6 |
| 20260904000107 | 66 | 261 | 18.0 | 27.0 | 0.00 | 0.06 | 0.00 | 39 | 1000.6 |
| 20260903234527 | 66 | 251 | 12.0 | 21.0 | 0.00 | 0.06 | 0.00 | 37 | 1000.4 |
| 20260903233026 | 66 | 269 | 14.0 | 25.0 | 0.00 | 0.06 | 0.00 | 38 | 1000.5 |
| 20260903231525 | 66 | 273 | 19.0 | 28.0 | 0.00 | 0.06 | 0.00 | 40 | 1000.4 |
| 20260903230026 | 67 | 217 | 18.0 | 25.0 | 0.00 | 0.06 | 0.00 | 39 | 1000.2 |
| 20260903224536 | 67 | 258 | 18.0 | 29.0 | 0.00 | 0.06 | 0.00 | 39 | 1000.0 |
| 20260903223018 | 67 | 263 | 19.0 | 27.0 | 0.00 | 0.06 | 0.00 | 40 | 999.7 |
| 20260903221517 | 67 | 227 | 19.0 | 26.0 | 0.00 | 0.06 | 0.00 | 41 | 999.7 |
| 20260903220017 | 68 | 279 | 16.0 | 22.0 | 0.00 | 0.06 | 0.00 | 41 | 999.3 |
| 20260903214521 | 68 | 249 | 16.0 | 26.0 | 0.00 | 0.06 | 0.00 | 42 | 999.3 |
| 20260903213024 | 68 | 248 | 15.0 | 26.0 | 0.00 | 0.06 | 0.00 | 41 | 999.3 |
| 20260903211510 | 67 | 281 | 13.0 | 30.0 | 0.00 | 0.06 | 0.00 | 43 | 999.1 |
| 20260903210009 | 66 | 265 | 10.0 | 23.0 | 0.00 | 0.06 | 0.00 | 43 | 999.0 |
| 20260903204508 | 66 | 229 | 14.0 | 19.0 | 0.00 | 0.06 | 0.00 | 42 | 999.1 |
| 20260903203008 | 67 | 244 | 18.0 | 25.0 | 0.00 | 0.06 | 0.00 | 40 | 999.0 |
| 20260903201507 | 66 | 225 | 10.0 | 23.0 | 0.00 | 0.06 | 0.00 | 43 | 998.8 |
| 20260903200004 | 66 | 212 | 7.0 | 24.0 | 0.00 | 0.06 | 0.00 | 43 | 998.8 |
| 20260903194508 | 67 | 260 | 16.0 | 27.0 | 0.00 | 0.06 | 0.00 | 42 | 998.7 |